Location: Lango�lan
(48.1202°N, 3.2340°W)
Time: 07:09:58
(UTC+00:00)

Cosmos 2366 rocket - Pass Details

Date: 23 October 2019
Orbit: 954 x 998 km, 82.9° (Epoch: 17 November)

Event Time Altitude Azimuth Distance (km) Brightness Sun altitude
Rises 05:16:09 0° 178° (S) 3,703 7.1 -15.2°
Reaches altitude 10° 05:18:40 10° 176° (S) 2,759 6.4 -14.8°
Maximum altitude 05:24:58 70° 95° (E) 1,062 4.4 -13.8°
Drops below altitude 10° 05:31:17 10° 13° (NNE) 2,770 6.5 -12.7°
Sets 05:33:49 0° 11° (NNE) 3,719 7.2 -12.3°
